Regional Weather Roundup
Issued by NWS

Home | Current Version | Previous Version | Graphics & Text | Print | Product List | Glossary On
Versions: 1 2 3 4 5 6 7 8 9 10 11 12 13 14 15 16 17 18 19 20 21 22 23 24 25 26 27 28 29 30 31 32 33 34 35 36 37 38 39 40 41 42 43 44 45 46 47 48 49 50
057
ASUS43 KIND 250309
RWRIN

WEATHER ROUNDUP FOR INDIANA
NATIONAL WEATHER SERVICE INDIANAPOLIS IN
1100 PM EDT TUE MAY 24 2016

NOTE: "FAIR" INDICATES FEW OR NO CLOUDS BELOW 12,000 FEET WITH NO
SIGNIFICANT WEATHER AND/OR OBSTRUCTIONS TO VISIBILITY.

* - STATION DOES NOT REPORT WEATHER SUCH AS PRECIPITATION OR FOG.

+ - STATION NOT QUALITY CONTROLLED BY THE NATIONAL WEATHER SERVICE.
    USE DATA WITH CAUTION...ESPECIALLY DEWPOINT AND RELATIVE
    HUMIDITY OBSERVATIONS.

INZ001>003-010>013-019-020-250400-
NORTHWEST INDIANA

CITY           SKY/WX    TMP DP  RH WIND       PRES   REMARKS
GARY /AIRPORT/ MOCLDY    79  61  53 S7        29.98R
KNOX *+        CLEAR     72  41  33 S7        30.01R
LA PORTE +     PTCLDY    77  52  41 S9        30.01R
MICHIGAN CITY+ PTCLDY    73  52  46 S8        30.00R
MONTICELLO +   CLEAR     72  49  42 S5        30.03R
RENSSELAER +   PTCLDY    73  52  46 S9        30.03R
VALPARAISO     PTCLDY    75  53  46 S10       30.01R

$$

LMZ046-743>745-250400-
SOUTHERN LAKE MICHIGAN

STATION/POSITION TIME  TEMP    WIND        PRES    WAVE
                       AIR SEA DIR/SP/G            HT
                 (UTC) (F)     (DEG/KT/KT) (MB)    (FT)
BURNS HARBOR     0200   78     190/  9/ 12 1015.2R
MICHIGAN CITY    0200   79     170/ 11/ 13   N/A
5NW MICH CITY    0300   67 59  190/  8/  8   N/A     1

$$

INZ004-005-014>016-021>024-250400-
NORTH CENTRAL INDIANA

CITY           SKY/WX    TMP DP  RH WIND       PRES   REMARKS
GOSHEN         CLEAR     69  48  47 S6        30.02R
LOGANSPORT +   CLEAR     68  54  60 S6        30.05R
ROCHESTER +    CLEAR     75  52  43 SW8       30.04R
SOUTH BEND     CLEAR     70  50  49 S7        30.01R
WARSAW +       CLEAR     70  50  49 CALM      30.04R

$$

INZ006>009-017-018-025>027-250400-
NORTHEAST INDIANA

CITY           SKY/WX    TMP DP  RH WIND       PRES   REMARKS
ANGOLA *+      CLEAR     64  54  68 CALM      30.04R
AUBURN +       CLEAR     63  50  63 CALM      30.05R
FORT WAYNE     PTCLDY    67  47  48 S5        30.05R
HUNTINGTON +   CLOUDY   N/A N/A N/A CALM      30.04R

$$

INZ028-029-035-036-043>045-051>053-250400-
WEST CENTRAL INDIANA

CITY           SKY/WX    TMP DP  RH WIND       PRES   REMARKS
CRAWFORDSVL +  PTCLDY    64  55  73 CALM      30.06R
GREENCASTLE +  PTCLDY    64  59  82 CALM      30.06R
LAFAYETTE      CLOUDY    71  54  54 CALM      30.04R
TERRE HAUTE    PTCLDY    71  56  58 S6        30.05R

$$

INZ030>032-037>040-046>048-054>057-064-065-250400-
CENTRAL INDIANA

CITY           SKY/WX    TMP DP  RH WIND       PRES   REMARKS
CP ATTERBURY + CLEAR     63  57  82 CALM      30.07S
FISHERS *+     PTCLDY    66  57  72 SW5       30.07
FRANKFORT +      N/A     68  44  41 CALM      30.07R
GREENWOOD *+   CLOUDY    68  55  64 S3        30.07R
INDIANAPOLIS   CLOUDY    72  54  53 SW5       30.05R
-EAGLE CREEK   CLOUDY    71  53  52 CALM      30.06R
KOKOMO *+      PTCLDY    68  52  56 SW7       30.05R
MARION +       CLEAR     69  52  54 S6        30.06R
SHELBYVILLE    CLEAR     69  54  58 S7        30.06R
ZIONSVILLE +   CLOUDY    66  55  66 S5        30.07R

$$

INZ033-034-041-042-049-050-058-059-250400-
EAST CENTRAL INDIANA

CITY           SKY/WX    TMP DP  RH WIND       PRES   REMARKS
MUNCIE         CLEAR     73  49  42 S5        30.06R

$$

INZ060-061-067>069-081>083-085>088-250400-
SOUTHWEST INDIANA

CITY           SKY/WX    TMP DP  RH WIND       PRES   REMARKS
EVANSVILLE     CLOUDY    73  58  59 SE5       30.05R
HUNTINGBURG *+ PTCLDY    70  57  64 SE6       30.06R
WASHINGTON +   MOCLDY    71  60  69 S6        30.04R

$$

INZ062-063-066-070>080-084-089>092-250400-
SOUTH CENTRAL AND SOUTHEAST INDIANA

CITY           SKY/WX    TMP DP  RH WIND       PRES   REMARKS
BEDFORD +      PTCLDY    70  64  83 S3        30.06S
BLOOMINGTON    CLEAR     68  56  65 S5        30.06R
MADISON *+     CLEAR     64  57  77 CALM      30.11R
NORTH VERNON + PTCLDY    64  64 100 CALM      30.09R
SEYMOUR +      MOCLDY    70  59  68 S3        30.07R

$$





USA.gov is the U.S. government's official web portal to all federal, state and local government web resources and services.